N6EQ Weather Reports


Display with metric or nautical units.
time (UTC)temp
F
wind
direction
speed
MPH
gust
MPH
rain 1hr
in
rain 24hr
in
rain mn
in
humidity
%
barometer
mb
20260831041510 94 188 3.0 17.0 0.00 0.00 0.00 36 948.3
20260831040009 95 243 2.0 12.0 0.00 0.00 0.00 36 948.0
20260831034509 96 116 10.0 19.0 0.00 0.00 0.00 33 947.5
20260831033015 97 113 12.0 20.0 0.00 0.00 0.00 31 947.2
20260831031512 97 116 11.0 18.0 0.00 0.00 0.00 31 947.0
20260831030005 99 116 12.0 19.0 0.00 0.00 0.00 31 946.8
20260831024504 100 149 8.0 14.0 0.00 0.00 0.00 27 946.5
20260831023003 101 173 10.0 17.0 0.00 0.00 0.00 22 946.4
20260831021505 102 239 4.0 11.0 0.00 0.00 0.00 19 946.1
20260831020002 102 224 4.0 13.0 0.00 0.00 0.00 20 946.1
20260831014501 103 221 9.0 14.0 0.00 0.00 0.00 19 946.2
20260831013105 104 148 8.0 17.0 0.00 0.00 0.00 19 946.2
20260831011600 104 243 7.0 14.0 0.00 0.00 0.00 19 946.2
20260831010059 104 135 8.0 18.0 0.00 0.00 0.00 19 946.3
20260831004600 105 195 8.0 21.0 0.00 0.00 0.00 19 946.4
20260831003058 105 168 6.0 21.0 0.00 0.00 0.00 19 946.3
20260831001557 105 7.0 20.0 0.00 0.00 0.00 19 946.2
20260831000059 105 9.0 16.0 0.00 0.00 0.00 19 946.2
20260830234553 105 187 12.0 19.0 0.00 0.00 0.00 19 946.4
20260830233053 105 11.0 21.0 0.00 0.00 0.00 20 946.6
20260830231551 105 210 10.0 20.0 0.00 0.00 0.00 20 946.7
20260830230049 105 10.0 24.0 0.00 0.00 0.00 20 946.9
20260830224548 105 210 10.0 21.0 0.00 0.00 0.00 20 947.1
20260830223045 104 210 12.0 19.0 0.00 0.00 0.00 20 947.3
20260830221544 104 197 13.0 21.0 0.00 0.00 0.00 20 947.5
20260830220048 104 150 16.0 27.0 0.00 0.00 0.00 20 947.8
20260830214547 105 224 7.0 32.0 0.00 0.00 0.00 20 948.0
20260830213041 104 181 5.0 19.0 0.00 0.00 0.00 21 948.3
20260830211539 103 172 11.0 23.0 0.00 0.00 0.00 21 948.4
20260830210039 103 162 8.0 19.0 0.00 0.00 0.00 22 948.8
20260830204538 103 210 9.0 19.0 0.00 0.00 0.00 21 949.1
20260830203040 103 240 7.0 24.0 0.00 0.00 0.00 22 949.1
20260830201635 103 152 13.0 21.0 0.00 0.00 0.00 22 949.3
20260830200034 102 147 15.0 24.0 0.00 0.00 0.00 22 949.5
20260830194535 102 163 8.0 19.0 0.00 0.00 0.00 22 949.4
20260830193032 102 158 7.0 18.0 0.00 0.00 0.00 23 949.7
20260830191538 101 172 14.0 22.0 0.00 0.00 0.00 23 950.0
20260830190029 101 119 12.0 21.0 0.00 0.00 0.00 24 950.1
20260830184526 101 212 8.0 19.0 0.00 0.00 0.00 24 950.2
20260830183025 100 8.0 21.0 0.00 0.00 0.00 25 950.4
20260830181523 100 204 15.0 25.0 0.00 0.00 0.00 25 950.6
20260830180021 99 198 6.0 15.0 0.00 0.00 0.00 26 950.6
20260830174518 99 207 7.0 17.0 0.00 0.00 0.00 25 950.7
20260830173014 98 208 6.0 14.0 0.00 0.00 0.00 26 950.7
20260830171513 97 191 9.0 16.0 0.00 0.00 0.00 26 950.7
20260830170031 97 3.0 14.0 0.00 0.00 0.00 27 950.6
20260830164509 97 179 5.0 11.0 0.00 0.00 0.00 28 950.6
20260830163007 95 208 6.0 12.0 0.00 0.00 0.00 28 950.6
20260830161502 95 253 3.0 11.0 0.00 0.00 0.00 29 950.6
20260830160106 94 213 4.0 8.0 0.00 0.00 0.00 30 950.6
20260830154558 94 214 3.0 6.0 0.00 0.00 0.00 30 950.6
20260830153058 93 219 0.0 0.0 0.00 0.00 0.00 30 950.6
20260830151606 91 267 0.0 0.0 0.00 0.00 0.00 30 950.6
20260830150059 91 245 0.0 0.0 0.00 0.00 0.00 30 950.6
20260830144559 89 0.0 4.0 0.00 0.00 0.00 31 950.7
20260830143053 91 0.0 6.0 0.00 0.00 0.00 30 950.5
20260830141551 90 3.0 8.0 0.00 0.00 0.00 30 950.3
20260830140101 91 5.0 10.0 0.00 0.00 0.00 29 950.1
20260830134555 90 3.0 6.0 0.00 0.00 0.00 30 949.9
20260830133047 89 4.0 7.0 0.00 0.00 0.00 31 949.6
20260830131555 90 3.0 7.0 0.00 0.00 0.00 31 949.5
20260830130042 90 3.0 8.0 0.00 0.00 0.00 31 949.2
20260830124541 90 5.0 8.0 0.00 0.00 0.00 31 949.1
20260830123042 90 5.0 9.0 0.00 0.00 0.00 30 948.9
20260830121537 90 4.0 6.0 0.00 0.00 0.00 30 948.7
20260830120038 90 0.0 6.0 0.00 0.00 0.00 30 948.5
20260830114535 90 110 6.0 10.0 0.00 0.00 0.00 30 948.5
20260830113033 90 6.0 10.0 0.00 0.00 0.00 30 948.5
20260830111532 91 0.0 3.0 0.00 0.00 0.00 30 948.5
20260830110030 91 113 0.0 5.0 0.00 0.00 0.00 29 948.4
20260830104528 92 3.0 6.0 0.00 0.00 0.00 29 948.4
20260830103032 91 1.0 7.0 0.00 0.00 0.00 29 948.3
20260830101524 92 122 0.0 2.0 0.00 0.00 0.00 29 948.1
20260830100023 92 141 4.0 7.0 0.00 0.00 0.00 29 947.9
20260830094520 92 128 0.0 4.0 0.00 0.00 0.00 28 947.7
20260830093030 92 112 4.0 9.0 0.00 0.00 0.00 28 947.6
20260830091516 93 119 1.0 6.0 0.00 0.00 0.00 28 947.5
20260830090015 93 110 1.0 6.0 0.00 0.00 0.00 28 947.3
20260830084513 93 116 1.0 4.0 0.00 0.00 0.00 27 947.2
20260830083011 93 115 0.0 2.0 0.00 0.00 0.00 27 947.3
20260830081509 94 110 0.0 1.0 0.00 0.00 0.00 27 947.2
20260830080009 94 103 0.0 4.0 0.00 0.00 0.00 26 947.3
20260830074508 94 116 1.0 6.0 0.00 0.00 0.00 26 947.4
20260830073007 94 116 0.0 6.0 0.00 0.00 0.00 26 947.4
20260830071502 95 107 0.0 0.0 0.00 0.00 0.00 25 947.5
20260830070100 95 87 0.0 8.0 0.00 0.00 0.00 25 947.5
20260830064609 96 80 0.0 4.0 0.00 0.00 0.00 25 947.5
20260830063059 98 83 0.0 3.0 0.00 0.00 0.00 24 947.4
20260830061558 98 79 0.0 1.0 0.00 0.00 0.00 23 947.4
20260830060101 99 74 0.0 5.0 0.00 0.00 0.00 23 947.3
20260830054557 100 27 2.0 7.0 0.00 0.00 0.00 23 947.3
20260830053057 100 206 4.0 8.0 0.00 0.00 0.00 22 947.1
20260830051557 101 243 2.0 6.0 0.00 0.00 0.00 22 946.9
20260830050056 101 207 4.0 9.0 0.00 0.00 0.00 22 946.9
20260830044604 102 178 5.0 9.0 0.00 0.00 0.00 21 946.8
20260830043055 102 179 6.0 12.0 0.00 0.00 0.00 21 946.6